Location: Apeadero de Los Molinos-Guadarrama
(40.7091°N, 4.0689°W)
Time: 12:47:50
(UTC+00:00)

Spot 2 Rocket - Pass Details

Date: 14 May 2021
Orbit: 757 x 771 km, 98.5° (Epoch: 18 June)

Event Time Altitude Azimuth Distance (km) Brightness Sun altitude
Exits shadow 21:50:10 42° 186° (S) 1,070 3.9 -21.9°
Maximum altitude 21:51:50 72° 258° (WSW) 801 3.6 -22.0°
Drops below altitude 10° 21:56:52 10° 342° (NNW) 2,296 7.0 -22.6°
Sets 21:59:12 0° 345° (NNW) 3,225 7.9 -22.9°
